950  
ASUS41 KAKQ 121916  
RWRAKQ  
 
REGIONAL WEATHER ROUNDUP  
NATIONAL WEATHER SERVICE WAKEFIELD VA  
200 PM EST TUE NOV 12 2019  
 
NOTE: "FAIR" INDICATES FEW OR NO CLOUDS BELOW 12,000 FEET WITH NO  
SIGNIFICANT WEATHER AND/OR S TO VISIBILITY
. * = DENOTES  
STATION MAY NOT REPORT PRECIPITATION (E.G., RAIN,SNOW,ETC.),
 
THUNDER OR FOG.  
 
VAZ042-051-052>054-056-122000-  
NORTHERN VIRGINIA  
 
CITY SKY/WX TMP DP RH WIND PRES REMARKS
 
WASH NATIONAL PTSUNNY 41 24 51 N15G26 30.02R  
DULLES PTSUNNY 39 22 50 N15G24 30.02R  
FORT BELVOIR PTSUNNY 40 20 44 NW10G21 30.01S  
QUANTICO PTSUNNY 41 23 48 N13G22 30.03R  
FREDERICKSBRG* FAIR 40 29 66 N12 30.01S  
STAFFORD* FAIR 39 26 58 NW13G20 30.06R  
WARRENTON CLOUDY 41 21 44 NW13G23 30.01S  
CULPEPER* PTSUNNY 42 22 46 N12G20 30.02S  
MANASSAS* PTSUNNY 40 24 53 N16 30.02F  
LEESBURG* CLOUDY 39 27 60 N16G24 30.03S  
WINCHESTER CLOUDY 36 21 55 NW17G25 30.00S  
FRONT ROYAL* CLOUDY 36 23 60 NW8G18 30.01F  
LURAY* CLOUDY 37 21 52 W10G16 30.02R  

 
 
VAZ048-049-060>072-079>083-122000-  
CENTRAL AND SOUTH CENTRAL VIRGINIA  
 
CITY SKY/WX TMP DP RH WIND PRES REMARKS
 
RICHMOND LGT SNOW 33 31 92 N8 30.02S FOG  
CHESTERFIELD* LGT SNOW 32 32 100 N6 30.02S FOG  
PETERSBURG* LGT SNOW 34 32 93 N6 30.03R  
HANOVER LGT SNOW 33 31 92 CALM 30.03S FOG  
TAPPAHANNOCK* LGT SNOW 33 33 100 NW3 30.03R VSB 1  
QUINTON* CLOUDY 32 32 100 N3 30.01F  
CHARLOTTSVILLE PTSUNNY 46 23 40 NW12G21 29.99S  
GORDONSVILLE* MOCLDY 42 28 57 NW7 30.00S  
ORANGE* PTSUNNY 39 27 60 N10G18 30.01S  
LOUISA* FAIR 36 34 94 N5 30.04S  
BUMPASS* CLOUDY 35 33 94 CALM 30.00F  
FARMVILLE* CLOUDY 37 36 95 N3 29.99F  
CREWE* CLOUDY 32 30 93 CALM 30.00F  
FORT PICKETT* CLOUDY 33 33 100 NW3 30.00F  
CHASE CITY* CLOUDY 32 32 99 CALM 30.01S  
CLARKSVILLE* CLOUDY 34 34 100 N6 30.01S  
SOUTH HILL* CLOUDY 35 33 93 N10G16 30.06R  
LAWRENCEVILLE* CLOUDY 37 36 96 NW7 30.01R  
EMPORIA* CLOUDY 38 37 94 NW12G17 30.02R  

 
 
VAZ088>098-122000-  
SOUTHEAST VIRGINIA  
 
CITY SKY/WX TMP DP RH WIND PRES REMARKS
 
NORFOLK LGT RAIN 43 38 82 N17G33 29.97R  
VIRGINIA BEACH RAIN 41 38 89 N26G33 29.96R FOG  
NORFOLK NAVAL LGT RAIN 41 37 86 N20G28 29.99R FOG  
WEST POINT* CLOUDY 32 32 100 NW5 30.03S  
SALUDA* CLOUDY 33 33 100 NW14G23 30.00F WCI 24  
NEWPORT NEWS LGT RAIN 39 34 82 N15G21 29.99R  
LANGLEY AFB NOT AVBL  
FORT EUSTIS RAIN 38 34 85 N13G23 29.98R  
WILLIAMSBURG* FAIR 36 36 100 N12G20 30.01R  
HR EXEC AP* LGT RAIN 39 37 93 N9G21 29.99R  
FRANKLIN* LGT RAIN 39 38 98 N12G21 30.02R  
US460-WAKEFLD RAIN 37 34 89 VRB7G16 30.01R FOG  

 
 
VAZ020-022-025-037-045-122000-  
WEST CENTRAL AND SOUTHWEST VIRGINIA  
 
CITY SKY/WX TMP DP RH WIND PRES REMARKS
 
STAUNTON* FAIR 40 16 38 NW18 30.02S  
WAYNESBORO* FAIR 38 17 41 NW13G22 29.99S  
HOT SPRINGS VA PTSUNNY 24 17 77 NW20G30 29.91R WCI 9  
LYNCHBURG FAIR 42 26 53 N10G20 29.99F  
DANVILLE CLOUDY 37 29 72 N12 30.03S  
SOUTH BOSTON* CLOUDY 34 33 95 CALM 30.02F  
MARTINSVILLE FAIR 39 25 56 NW17G24 30.05S  
ROANOKE FAIR 39 19 44 NW18G24 30.05F  
BLACKSBURG PTSUNNY 32 19 59 NW15G22 30.06R WCI 21  
DUBLIN* CLOUDY 32 20 62 NW18G30 30.07R WCI 20  
MARION* FLURRIES 27 21 79 NW14G21 30.11R WCI 15  
HILLSVILLE* CLOUDY 28 19 69 NW20G30 29.99R WCI 14  
RICHLANDS* LGT SNOW 20 17 86 NW8 30.13R  
WISE* FLURRIES 23 19 86 NW7 30.15S  
ABINGDON* FLURRIES 25 15 63 N6 30.16S  

 
 
MDZ021>025-VAZ099-100-122000-  
SOUTHERN MARYLAND AND THE DELMARVA PENINSULA  
 
CITY SKY/WX TMP DP RH WIND PRES REMARKS
 
PATUXENT RIVER LGT SNOW 36 34 92 N15 30.01R FOG  
BAY BRIDGE APT CLOUDY 41 21 45 NW17G26 29.99S  
LEONARDTOWN NOT AVBL  
DOVER LGT RAIN 36 33 89 NW9 29.97R  
GEORGETOWN LGT SNOW 34 33 96 N7 29.98R VSB 3/4  
EASTON PTSUNNY 37 27 65 NW17G24 30.02F  
CAMBRIDGE PTSUNNY 34 32 93 N15G24 30.00R FOG WCI 24  
SALISBURY SNOW 34 31 88 NW20G29 29.98R VSB 1/2 WCI 23  
TANGIER NOT AVBL  
OCEAN CITY RAIN 35 33 92 NW14G30 29.96R FOG  
WALLOPS ISLAND RAIN 36 34 92 NW12 29.98R  
ACCOMACK* NOT AVBL  

 
 
NCZ012>017-030>032-122000-  
NORTH CENTRAL AND EASTERN NORTH CAROLINA  
 
CITY SKY/WX TMP DP RH WIND PRES REMARKS
 
ROANOKE RAPIDS RAIN 41 41 100 N16G23 29.98R  
RALEIGH LGT RAIN 38 35 89 VRB6 30.01R FOG  
ELIZABETH CITY LGT RAIN 46 42 86 N23G32 29.92R  
AHOSKIE* RAIN 43 43 100 N16 29.96R  
EDENTON* LGT RAIN 46 44 93 N20G33 29.94R  
CURRITUCK* DRIZZLE 44 44 100 N17G26 29.93R  
KILL DEVIL HLS CLOUDY 53 48 83 N10G23 29.88R  
MANTEO CLOUDY 54 49 83 N22 29.90R  
CAPE HATTERAS CLOUDY 61 60 97 NW8 29.84R  
TARBORO* CLOUDY 47 46 95 NW8 29.95R  
GOLDSBORO LGT RAIN 46 43 89 N9 29.92F  
WASHINGTON DRIZZLE 51 49 93 NW8 29.93R  
GREENVILLE LGT RAIN 48 46 93 N9 29.96R  
NEW BERN CLOUDY 55 49 80 N12 29.89R  
WILMINGTON CLOUDY 62 53 72 N15 29.85R  

 
 
VAZ048-122000-  
ELSEWHERE  
 
CITY SKY/WX TMP DP RH WIND PRES REMARKS
 
HARRISBURG PA PTSUNNY 37 20 50 NW14G22 30.01S  
BALTIMORE PTSUNNY 40 20 44 NW17G24 29.99S  
ANNAPOLIS CLOUDY 42 24 49 N17 29.99R  
ANDREWS AFB CLOUDY 38 21 49 NW21G28 29.99R  
PHILADELPHIA CLOUDY 36 25 64 NW15G24 29.98R  
HENDERSON NC LGT RAIN 34 33 94 N12G18 30.00R  
GREENSBORO PTSUNNY 37 32 82 N8 30.01R  
ROCKY MOUNT LGT RAIN 44 32 62 NW12 29.95F  

 
 
VAZ100-122000-  
MARINE  
 
STATION/POSITION TIME TEMP WIND PRES WAVE SWELL
 
AIR SEA DIR/SP/G HT/PER HT/PER  
(UTC) (F) (DEG/KT/KT) (MB) (FT/S) (FT/S)  
CAPE MAY NJ 1824 36 53 320/ 20/ 32 1014.0  
LEWES DE 1824 37 54 340/ 22/ 30 1014.4  
15NM E FENWICK I 1850 41 60 320/ 33/ 39 1011.0R 8/ 6 2/12  
OCEAN-CITY-INLET 1824 39 56 360/ 19/ 23 1014.2  
44089 WALLOPS IS 1900 61 N/A 5/ 4 2/15  
WACHAPREAGUE VA 1824 40 53 340/ 7/ 19 1014.3  
THOMAS POINT MD 1900 41 56 310/ 21/ 25 1016.4R  
GOOSES REEF MD 1842 40 350/ 19/ 25 1015.9R  
COVE POINT MD 1824 37 350/ 28/ 33 1016.3  
SOLOMONS ISLAND 1824 36 58 340/ 13/ 22 1015.7  
BISHOPS HEAD MD 1830 34 51 340/ 16/ 20 1015.9R  
PINEY POINT MD 1824 350/ 21/ 24 N/A  
POTOMAC MD 1854 36 57 340/ 16/ 19 1018.7R  
CAMBRIDGE MD 1824 37 53 320/ 20/ 25 1015.2  
LEWISETTA VA 1830 36 54 360/ 17/ 25 1016.4R  
RAPPAHANNOCK LGT 1824 320/ 33/ 37 1015.7  
STINGRAY PT 1854 38 58 360/ 21/ 25 1019.4R  
YORK RVR RNG VA 1824 41 360/ 34/ 40 1013.9  
YORKTOWN VA 1824 40 58 330/ 25/ 30 1014.5  
JAMESTOWN VA 1854 35 56 1016.4R  
DOMINION TERM VA 1824 42 50/ 5/ 16 1014.5  
KIPTOPEKE VA 1824 56 350/ 29/ 36 N/A  
CAPE HENRY VA 1824 43 330/ 32/ 38 1014.2  
WILLOUBY STN VA 1824 41 350/ 23/ 29 1014.0  
S CRANEY ISL VA 1824 42 10/ 22/ 27 1014.3  
CAPE HENRY BUOY 1900 62 N/A 6/ 5 2/15  
1ST LANDING BUOY 1840 44 360/ 29/ 33 1014.3R  
64NM E OF VA BCH 1850 53 63 350/ 25/ 31 1010.8F 6/ 4 2/14  
DUCK PIER NC 1824 52 65 360/ 28/ 32 1010.6  
44100 DUCK FRF 1900 64 N/A 5/ 5 2/13  
44056 DUCK FRF 1830 65 N/A 3/ 4 2/13  
OREGON INLET NC 1830 58 62 330/ 8/ 13 1011.0R  
HATTERAS NC 1824 62 66 320/ 9/ 11 1010.2  
DIAMOND SHLS NC 1850 64 78 300/ 14/ 17 1009.4F 4/ 5 3/13  
CAPE LOOKOUT NC 1900 66 340/ 17/ 20 1010.1R  

 
 
 
CLICK HERE TO GO TO PREVIOUS BULLETINS.

The Nexlab VA Page
The Nexlab NC Page
The Nexlab MD Page Main Text Page